GW6228 Weather Reports


time (UTC)temp
F
wind
direction
speed
knots
gust
knots
rain 1hr
in
rain 24hr
in
rain mn
in
humidity
%
barometer
mb
20260510201845 44 63 0.0 0.0 0.00 0.00 0.00 99 1014.4
20260510201326 44 67 0.0 0.0 0.00 0.00 0.00 99 1014.5
20260510200806 44 72 0.0 0.0 0.00 0.00 0.00 99 1014.3
20260510200245 44 64 0.0 0.0 0.00 0.00 0.00 99 1014.1
20260510195725 44 23 0.0 0.0 0.00 0.00 0.00 99 1014.3
20260510195205 44 42 0.0 0.0 0.00 0.00 0.00 99 1014.4
20260510194645 44 84 0.0 0.0 0.00 0.00 0.00 99 1014.1
20260510194131 44 60 0.0 0.0 0.00 0.00 0.00 99 1014.1
20260510193621 45 66 0.0 0.0 0.00 0.00 0.00 99 1014.2
20260510193101 44 61 0.0 0.0 0.00 0.00 0.00 99 1014.0
20260510192524 44 80 0.0 0.0 0.00 0.00 0.00 99 1014.0
20260510192005 44 85 0.0 0.0 0.00 0.00 0.00 99 1014.1
20260510191445 43 57 0.0 0.0 0.00 0.00 0.00 99 1014.0
20260510190926 43 57 0.0 0.0 0.00 0.00 0.00 99 1013.9
20260510190406 43 58 0.0 0.0 0.00 0.00 0.00 99 1013.8
20260510185846 43 66 0.0 0.0 0.00 0.00 0.00 99 1013.9
20260510185326 43 39 0.0 0.0 0.00 0.00 0.00 99 1013.9
20260510184806 43 67 0.0 0.0 0.00 0.00 0.00 99 1013.8
20260510184246 43 70 0.0 0.0 0.00 0.00 0.00 99 1013.7
20260510183726 43 72 0.0 0.0 0.00 0.00 0.00 99 1013.5
20260510183206 44 96 0.0 0.0 0.00 0.00 0.00 99 1013.6
20260510182646 44 106 0.0 0.0 0.00 0.00 0.00 99 1013.7
20260510182126 44 129 0.0 0.0 0.00 0.00 0.00 99 1013.6
20260510181606 44 90 0.0 0.0 0.00 0.00 0.00 99 1013.2
20260510181045 45 85 0.0 0.0 0.00 0.00 0.00 99 1013.4
20260510180524 45 96 0.0 0.0 0.00 0.00 0.00 99 1013.6
20260510180005 45 133 0.0 0.0 0.00 0.00 0.00 99 1013.4
20260510175445 45 141 0.0 0.0 0.00 0.00 0.00 99 1013.5
20260510174924 46 152 0.0 0.0 0.00 0.00 0.00 99 1013.3
20260510174404 46 133 0.0 0.0 0.00 0.00 0.00 99 1013.3
20260510173845 46 153 0.0 0.0 0.00 0.00 0.00 99 1013.5
20260510173325 46 157 0.0 0.0 0.00 0.00 0.00 99 1013.2
20260510172805 46 170 0.0 0.0 0.00 0.00 0.00 99 1013.4
20260510172245 47 172 0.0 0.0 0.00 0.00 0.00 99 1013.5
20260510171725 47 175 0.0 0.0 0.00 0.00 0.00 99 1013.1
20260510171206 47 163 0.0 0.0 0.00 0.00 0.00 99 1013.3
20260510170646 47 155 0.0 0.0 0.00 0.00 0.00 99 1013.1
20260510170125 47 159 0.0 0.0 0.00 0.00 0.00 99 1013.2
20260510165605 47 165 0.0 0.0 0.00 0.00 0.00 99 1013.5
20260510165045 48 176 0.0 0.0 0.00 0.00 0.00 99 1013.4
20260510164524 48 166 0.0 0.0 0.00 0.00 0.00 99 1013.3
20260510164004 48 157 0.0 0.0 0.00 0.00 0.00 99 1013.2
20260510163445 48 160 0.0 0.0 0.00 0.00 0.00 99 1013.4
20260510162925 48 161 0.0 0.0 0.00 0.00 0.00 99 1013.3
20260510162405 48 163 0.0 0.0 0.00 0.00 0.00 99 1013.3
20260510161845 48 176 0.0 0.0 0.00 0.00 0.00 99 1013.4
20260510161325 48 173 0.0 0.0 0.00 0.00 0.00 99 1013.3
20260510160807 48 174 0.0 0.0 0.00 0.00 0.00 99 1013.5
20260510160246 49 164 0.0 0.0 0.00 0.00 0.00 99 1013.5
20260510155725 49 167 0.0 0.0 0.00 0.00 0.00 99 1013.4
20260510155204 49 159 0.0 0.0 0.00 0.00 0.00 99 1013.5
20260510154645 49 162 2.6 4.3 0.00 0.00 0.00 99 1013.3
20260510154124 49 152 0.9 2.6 0.00 0.00 0.00 99 1013.5
20260510153606 49 170 2.6 4.3 0.00 0.00 0.00 99 1013.4
20260510153047 49 164 2.6 4.3 0.00 0.00 0.00 99 1013.3
20260510152524 49 162 2.6 4.3 0.00 0.00 0.00 99 1013.4
20260510152004 49 186 2.6 4.3 0.00 0.00 0.00 99 1013.4
20260510151445 49 163 2.6 4.3 0.00 0.00 0.00 99 1013.6
20260510150924 49 182 2.6 4.3 0.00 0.00 0.00 99 1013.4
20260510150405 49 166 2.6 4.3 0.00 0.00 0.00 99 1013.5
20260510145845 49 181 3.5 4.3 0.00 0.00 0.00 99 1013.5
20260510145325 49 175 1.7 2.6 0.00 0.00 0.00 99 1013.4
20260510144805 49 158 3.5 4.3 0.00 0.00 0.00 99 1013.5
20260510144245 49 151 2.6 4.3 0.00 0.00 0.00 99 1013.5
20260510143725 49 160 2.6 4.3 0.00 0.00 0.00 99 1013.4
20260510143205 49 161 2.6 4.3 0.00 0.00 0.00 99 1013.5
20260510142645 49 176 2.6 4.3 0.00 0.00 0.00 99 1013.4
20260510142126 49 178 1.7 2.6 0.00 0.00 0.00 99 1013.4
20260510141606 49 178 2.6 4.3 0.00 0.00 0.00 99 1013.6
20260510141045 49 167 2.6 4.3 0.00 0.00 0.00 99 1013.5
20260510140527 49 172 2.6 4.3 0.00 0.00 0.00 99 1013.6
20260510140005 48 174 2.6 4.3 0.00 0.00 0.00 99 1013.5
20260510135445 48 163 1.7 2.6 0.00 0.00 0.01 98 1013.6
20260510134924 48 171 0.9 2.6 0.00 0.00 0.01 98 1013.7
20260510134405 48 167 1.7 2.6 0.00 0.00 0.01 98 1013.6
20260510133844 47 163 0.0 0.0 0.00 0.00 0.01 98 1013.6
20260510133324 47 168 0.0 0.0 0.00 0.00 0.01 98 1013.7
20260510132805 47 173 0.0 0.0 0.00 0.00 0.01 98 1013.6
20260510132245 47 164 0.0 0.0 0.00 0.00 0.01 98 1013.6
20260510131725 47 167 0.0 0.0 0.00 0.00 0.01 98 1013.8
20260510131204 46 175 0.0 0.0 0.00 0.00 0.01 98 1013.6
20260510130645 46 176 0.0 0.0 0.00 0.00 0.01 97 1013.8
20260510130125 46 163 0.0 0.0 0.00 0.00 0.01 97 1013.7
20260510125604 45 164 0.0 0.0 0.00 0.00 0.01 97 1013.8
20260510125045 45 159 0.0 0.0 0.00 0.00 0.01 97 1013.7
20260510124524 45 100 0.0 0.0 0.00 0.00 0.01 97 1013.6
20260510124004 45 170 0.0 0.0 0.00 0.00 0.01 97 1013.6
20260510123445 45 160 0.0 0.0 0.00 0.00 0.01 97 1013.7
20260510122925 44 165 0.0 0.0 0.00 0.00 0.01 97 1013.8
20260510122404 44 168 0.0 0.0 0.00 0.00 0.01 96 1013.8
20260510121844 43 105 0.0 0.0 0.00 0.00 0.01 96 1013.8
20260510121324 43 149 0.0 0.0 0.00 0.00 0.01 96 1013.8
20260510120805 43 30 0.0 0.0 0.00 0.00 0.01 96 1013.9
20260510120245 43 94 0.0 0.0 0.00 0.00 0.01 96 1013.9
20260510115725 43 133 0.0 0.0 0.00 0.00 0.01 96 1014.1
20260510115205 44 139 0.0 0.0 0.00 0.00 0.01 96 1013.8
20260510114645 43 29 0.0 0.0 0.00 0.00 0.01 96 1013.7
20260510114125 44 156 0.0 0.0 0.00 0.00 0.01 96 1013.6
20260510113604 43 40 0.0 0.0 0.00 0.00 0.01 95 1013.7
20260510113044 44 111 0.0 0.0 0.00 0.00 0.01 95 1013.8
20260510112524 44 153 0.0 0.0 0.00 0.00 0.01 95 1013.6
20260510112004 43 13 0.0 0.0 0.00 0.00 0.01 95 1013.6
20260510111445 44 150 0.0 0.0 0.00 0.00 0.01 95 1013.6
20260510110926 44 140 0.0 0.0 0.00 0.00 0.01 95 1013.5
20260510110405 44 121 0.0 0.0 0.00 0.00 0.01 95 1013.4
20260510105844 44 72 0.0 0.0 0.00 0.00 0.01 95 1013.7
20260510105324 44 56 0.0 0.0 0.00 0.00 0.01 95 1013.5
20260510104805 45 56 0.0 0.0 0.00 0.00 0.01 95 1013.5
20260510104244 45 74 0.0 0.0 0.00 0.00 0.01 95 1013.5
20260510103724 44 42 0.0 0.0 0.00 0.00 0.01 95 1013.6
20260510103204 45 43 0.0 0.0 0.00 0.00 0.01 94 1013.5
20260510102644 45 57 0.0 0.0 0.00 0.00 0.01 94 1013.5
20260510102124 44 47 0.0 0.0 0.00 0.00 0.01 94 1013.4
20260510101604 45 32 0.0 0.0 0.00 0.00 0.01 94 1013.5
20260510101044 45 19 0.0 0.0 0.00 0.00 0.01 94 1013.2
20260510100524 46 144 0.0 0.0 0.00 0.00 0.01 93 1013.4
20260510100004 46 159 0.0 0.0 0.00 0.00 0.01 93 1013.2
20260510095444 45 23 0.0 0.0 0.00 0.00 0.01 93 1013.2
20260510094924 46 128 0.0 0.0 0.00 0.00 0.01 93 1013.2
20260510094404 46 160 0.0 0.0 0.00 0.00 0.01 93 1013.3
20260510093845 46 162 0.0 0.0 0.00 0.00 0.01 93 1013.1
20260510093324 46 171 0.0 0.0 0.00 0.00 0.01 93 1013.1
20260510092804 46 161 0.0 0.0 0.00 0.00 0.01 92 1013.2
20260510092244 47 163 0.0 0.0 0.00 0.00 0.01 92 1013.1
20260510091724 47 158 0.0 0.0 0.00 0.00 0.01 92 1013.1
20260510091204 47 155 0.0 0.0 0.00 0.00 0.01 92 1013.0
20260510090644 47 157 0.0 0.0 0.00 0.00 0.01 92 1013.0
20260510090124 47 165 0.0 0.0 0.00 0.00 0.01 92 1013.0
20260510085604 48 168 0.0 0.0 0.00 0.00 0.01 91 1012.9
20260510085044 48 166 0.0 0.0 0.00 0.00 0.01 91 1012.7
20260510084523 48 135 0.0 0.0 0.00 0.00 0.01 91 1012.8
20260510084004 48 153 0.0 0.0 0.00 0.00 0.01 90 1012.8
20260510083445 48 131 0.0 0.0 0.00 0.00 0.01 90 1012.9
20260510082924 48 16 0.0 0.0 0.00 0.00 0.01 90 1012.7
20260510082404 49 134 0.0 0.0 0.00 0.00 0.01 89 1012.7
20260510081845 49 170 0.0 0.0 0.00 0.00 0.01 89 1012.5
20260510081324 49 156 0.0 0.0 0.00 0.00 0.01 88 1012.5
20260510080804 50 142 0.0 0.0 0.00 0.00 0.01 88 1012.4
20260510080244 50 156 0.0 0.0 0.00 0.00 0.01 88 1012.3
20260510075724 50 151 0.0 0.0 0.00 0.00 0.01 87 1012.3
20260510075204 50 142 0.0 0.0 0.00 0.00 0.01 87 1012.4
20260510074644 51 152 0.9 2.6 0.00 0.00 0.01 87 1012.0
20260510074125 51 155 0.9 2.6 0.00 0.00 0.01 86 1012.0
20260510073605 51 159 1.7 2.6 0.00 0.00 0.01 86 1012.1
20260510073044 52 150 1.7 2.6 0.00 0.00 0.01 86 1012.3
20260510072524 52 163 2.6 4.3 0.00 0.00 0.01 86 1012.2
20260510072003 52 155 2.6 4.3 0.00 0.00 0.01 85 1012.0
20260510071445 52 156 4.3 4.3 0.00 0.00 0.01 85 1012.0
20260510070924 52 165 3.5 4.3 0.00 0.00 0.01 85 1012.1
20260510070404 53 166 4.3 4.3 0.00 0.00 0.01 85 1012.3
20260510065844 53 154 5.2 7.0 0.00 0.00 0.01 84 1011.9
20260510065324 53 153 3.5 4.3 0.00 0.00 0.01 84 1011.9
20260510064804 53 164 4.3 7.0 0.00 0.00 0.01 84 1012.0
20260510064244 53 159 3.5 4.3 0.00 0.00 0.01 84 1011.9
20260510063724 54 183 4.3 7.0 0.00 0.00 0.01 84 1011.8
20260510063204 53 175 6.1 8.7 0.00 0.00 0.01 84 1011.9
20260510062645 53 168 4.3 7.0 0.00 0.00 0.01 84 1011.9
20260510062125 53 151 4.3 7.0 0.00 0.00 0.01 83 1011.9
20260510061605 54 167 5.2 7.0 0.00 0.00 0.01 83 1011.9
20260510061045 54 161 4.3 4.3 0.00 0.00 0.01 83 1011.8
20260510060525 54 168 6.1 8.7 0.00 0.00 0.01 82 1011.7
20260510060003 55 173 4.3 7.0 0.00 0.00 0.01 82 1011.6
20260510055444 55 159 4.3 7.0 0.00 0.00 0.01 82 1011.8
20260510054924 55 150 3.5 7.0 0.00 0.00 0.01 81 1011.5
20260510054404 55 175 4.3 7.0 0.00 0.00 0.01 80 1011.9
20260510053845 55 173 7.0 8.7 0.00 0.00 0.01 80 1011.5
20260510053324 55 166 7.0 11.3 0.00 0.00 0.01 79 1011.6
20260510052804 55 176 6.1 7.0 0.00 0.00 0.01 80 1011.5
20260510052244 55 153 5.2 8.7 0.00 0.00 0.01 81 1011.6
20260510051725 54 166 4.3 7.0 0.00 0.00 0.01 81 1011.8
20260510051204 54 138 6.1 8.7 0.00 0.00 0.01 81 1011.7
20260510050644 54 168 4.3 7.0 0.00 0.00 0.01 81 1011.6
20260510050124 55 176 6.1 8.7 0.00 0.00 0.01 81 1011.8
20260510045604 55 149 4.3 7.0 0.00 0.00 0.01 81 1011.6
20260510045044 55 150 4.3 7.0 0.00 0.00 0.01 80 1011.4
20260510044524 55 159 4.3 7.0 0.00 0.00 0.01 80 1011.7
20260510044003 56 165 4.3 4.3 0.00 0.00 0.01 80 1011.6
20260510043444 55 160 4.3 4.3 0.00 0.00 0.01 79 1011.4
20260510042924 56 164 6.1 8.7 0.00 0.00 0.01 79 1011.5
20260510042404 56 150 7.0 8.7 0.00 0.00 0.01 79 1011.4
20260510041845 56 142 5.2 7.0 0.00 0.00 0.01 78 1011.5
20260510041325 55 160 5.2 7.0 0.00 0.00 0.01 78 1011.6
20260510040804 56 159 4.3 7.0 0.00 0.00 0.01 78 1011.6
20260510040246 57 164 6.1 8.7 0.00 0.00 0.01 77 1011.6
20260510035724 57 165 3.5 4.3 0.00 0.00 0.01 76 1011.8
20260510035205 56 172 7.0 8.7 0.00 0.00 0.01 77 1011.7
20260510034645 57 157 7.8 11.3 0.00 0.00 0.01 75 1011.7
20260510034124 60 159 7.0 8.7 0.00 0.00 0.01 72 1011.6
20260510033604 58 158 7.0 8.7 0.00 0.00 0.01 77 1011.9
20260510033044 56 170 6.1 7.0 0.00 0.00 0.01 78 1011.7
20260510032525 57 150 6.1 8.7 0.00 0.00 0.01 77 1011.8
20260510032004 60 146 3.5 7.0 0.00 0.00 0.01 74 1011.7
20260510031446 58 165 3.5 4.3 0.00 0.00 0.01 77 1011.9
20260510030925 57 159 6.1 7.0 0.00 0.00 0.01 76 1011.8
20260510030405 58 160 6.1 11.3 0.00 0.00 0.01 75 1012.0
20260510025845 56 147 5.2 7.0 0.00 0.00 0.01 77 1011.9
20260510025324 57 167 5.2 7.0 0.00 0.00 0.01 79 1012.1
20260510024804 55 152 7.0 8.7 0.00 0.00 0.01 80 1012.1
20260510024245 55 140 5.2 7.0 0.00 0.00 0.01 79 1012.1
20260510023725 56 141 3.5 4.3 0.00 0.00 0.01 80 1012.1
20260510023204 56 157 7.0 8.7 0.00 0.00 0.01 79 1012.4
20260510022644 56 157 5.2 7.0 0.00 0.00 0.01 79 1012.3
20260510022124 57 170 6.1 8.7 0.00 0.00 0.01 79 1012.3
20260510021604 56 161 5.2 7.0 0.00 0.00 0.01 79 1012.6
20260510021045 56 159 4.3 7.0 0.00 0.00 0.01 80 1012.7
20260510020524 56 176 6.1 8.7 0.00 0.00 0.01 80 1012.5
20260510020005 55 159 5.2 7.0 0.00 0.00 0.01 80 1012.6
20260510015445 55 143 3.5 7.0 0.00 0.00 0.01 80 1012.5
20260510014924 56 163 5.2 7.0 0.00 0.00 0.01 79 1012.8
20260510014404 55 181 5.2 7.0 0.00 0.00 0.01 80 1012.8
20260510013844 55 171 7.0 8.7 0.00 0.00 0.01 81 1012.9
20260510013324 54 144 5.2 8.7 0.00 0.00 0.01 81 1013.0
20260510012804 56 154 4.3 4.3 0.00 0.00 0.01 80 1013.0
20260510012245 54 166 7.0 11.3 0.00 0.00 0.01 82 1013.1
20260510011726 55 155 7.8 11.3 0.00 0.00 0.01 83 1013.0
20260510011204 55 155 7.0 8.7 0.00 0.00 0.01 84 1013.3
20260510010644 54 165 6.1 11.3 0.00 0.00 0.01 84 1013.1
20260510010126 54 141 4.3 7.0 0.00 0.00 0.01 85 1013.2
20260510005604 53 165 5.2 7.0 0.00 0.00 0.01 86 1013.0
20260510005045 53 158 7.8 11.3 0.00 0.00 0.01 88 1013.3
20260510004524 53 172 7.8 8.7 0.00 0.00 0.01 89 1013.0
20260510004004 53 178 7.0 8.7 0.00 0.00 0.01 92 1013.3
20260510003445 52 178 8.7 8.7 0.00 0.00 0.01 94 1013.1
20260510002925 52 168 7.0 8.7 0.00 0.00 0.01 96 1013.0
20260510002405 52 158 4.3 7.0 0.00 0.00 0.01 98 1013.2
20260510001845 52 178 4.3 7.0 0.00 0.00 0.01 99 1013.3
20260510001325 52 158 4.3 7.0 0.00 0.00 0.01 99 1013.2
20260510000805 52 154 5.2 8.7 0.00 0.00 0.01 99 1013.1
20260510000245 51 174 4.3 7.0 0.00 0.00 0.01 99 1013.1
20260509235725 51 175 7.0 8.7 0.00 0.00 0.01 99 1013.1
20260509235205 51 147 4.3 7.0 0.00 0.00 0.01 99 1013.2
20260509234646 51 180 4.3 7.0 0.00 0.00 0.01 99 1013.2
20260509234125 51 164 5.2 7.0 0.00 0.00 0.01 99 1013.3
20260509233606 51 170 4.3 7.0 0.00 0.00 0.01 99 1013.0
20260509233045 51 177 5.2 7.0 0.00 0.00 0.01 99 1012.8
20260509232525 51 171 5.2 7.0 0.00 0.00 0.01 99 1013.0
20260509232005 51 151 5.2 8.7 0.00 0.00 0.01 99 1013.1
20260509231445 51 155 6.1 7.0 0.00 0.00 0.01 99 1013.1
20260509230925 51 187 4.3 7.0 0.00 0.00 0.01 99 1012.7
20260509230405 51 176 4.3 7.0 0.00 0.00 0.01 99 1012.9
20260509225845 51 131 5.2 8.7 0.00 0.00 0.01 99 1013.1
20260509225325 50 155 7.0 8.7 0.00 0.00 0.01 99 1012.9
20260509224804 51 155 6.1 8.7 0.00 0.00 0.01 99 1012.7
20260509224245 51 173 5.2 8.7 0.00 0.00 0.01 99 1012.7
20260509223725 50 158 6.1 8.7 0.00 0.00 0.01 99 1012.7
20260509223205 51 163 6.1 7.0 0.00 0.00 0.01 99 1012.7
20260509222645 51 188 4.3 7.0 0.00 0.00 0.01 99 1012.7
20260509222130 50 160 6.1 8.7 0.00 0.00 0.01 99 1012.6
20260509221620 50 157 6.1 8.7 0.00 0.00 0.01 99 1012.8
20260509221100 50 151 4.3 7.0 0.00 0.00 0.01 99 1012.5
20260509220540 51 162 6.1 7.0 0.00 0.00 0.01 99 1012.6
20260509220025 51 161 7.8 8.7 0.00 0.00 0.01 99 1012.3
20260509215515 51 150 7.0 8.7 0.00 0.00 0.01 99 1012.5
20260509214956 51 147 1.7 4.3 0.00 0.00 0.01 99 1012.2